CANX-4

Last updated on Mon Sep 14 2026 00:03:48 GMT+0000 (Coordinated Universal Time)

1 40055U 14034C 26256.43653911 .00000660 00000+0 91650-4 0 9995 2 40055 98.2967 134.9311 0014064 87.3303 272.9518 14.81392437657596
UTC large
Height (km)
Speed (km/s)
/
Latitude / Longitude
Inclination (degrees)
Orbital Period (minutes)
Azimuth
Elevation
Range (km)
Doppler Factor

Next 0 passes for location: London (51.5072 / 0.1276)

No passes found over London.
CANX-4